RH
60 58 46 39 42 52 58 54 47 52 66 58 45 58 57 61 77 76 69 70 66 74 98 89 89 100 100 100 94 86 91 90
100 65 91 100 88 71 52 61 57 49 62 66 56 48 52 57 71 75 81 79 81 69 70 81 90 82 96 100 100 100 100 96
96 100 93 85 83 93 100 100 100 100 52 47 51 50 47 46 53 76 69 83 90 84 81 82 80 78 86 90 91 99 100 100
76 100 100 100 100 100 100 100 100 100 77 53 48 58 61 68 63 75 93 91 94 90 87 86 82 78 74 74 91 74 86 100
100 100 62 88 100 100 79 92 100 99 100 92 82 94 75 82 76 73 67 71 78 81 78 84 82 71 66 63 64 71 79 84
100 100 100 94 74 100 100 100 99 66 64 66 77 99 100 100 87 79 83 76 97 84 82 80 79 70 64 67 72 61 51 54
66 77 94 76 64 69 93 100 100 100 100 100 100 100 100 100 100 100 100 100 100 90 77 82 72 69 65 57 55 54 54 50
72 79 78 74 79 65 63 69 92 94 98 78 78 70 65 64 66 67 70 84 83 76 65 60 54 50 46 40 51 62 55 49
100 94 98 90 95 94 81 68 65 58 60 49 42 50 57 55 50 47 43 39 34 36 42 36 32 29 27 28 28 24 24 30
100 100 100 100 100 100 100 100 93 88 92 99 100 100 98 78 56 42 32 24 20 18 15 14 13 12 12 12 15 17 18 16
90 95 95 98 98 94 88 90 91 86 89 84 64 54 45 33 24 17 16 15 14 12 11 9 9 8 8 7 8 9 9 11
51 78 90 84 81 79 71 68 63 67 65 46 27 19 18 18 16 15 14 13 13 12 11 10 9 8 8 7 7 7 8 8
57 48 46 39 35 31 29 28 26 24 23 22 20 18 17 16 16 16 16 16 15 15 15 14 12 11 10 8 7 7 7 7
64 56 46 38 33 30 28 26 24 22 20 19 19 18 19 19 21 22 22 22 21 20 18 17 16 14 13 11 9 8 7 7
43 39 35 33 31 28 26 24 22 22 22 22 23 24 23 26 28 29 28 27 25 23 22 21 20 18 17 16 14 11 9 7
38 36 34 32 30 31 31 28 25 24 23 24 25 25 26 30 31 31 30 28 25 25 25 25 25 24 22 21 18 17 16 14
41 35 34 34 40 36 30 27 25 24 25 26 27 27 28 34 33 33 32 32 33 30 28 25 24 23 22 21 20 19 18 16
38 39 46 46 39 31 29 28 30 29 29 29 30 31 33 35 34 34 33 30 27 25 24 22 21 20 20 19 18 16 16 15
43 56 53 42 35 30 31 31 29 28 28 28 28 29 29 29 30 29 27 26 26 25 23 22 21 20 20 18 17 15 14 13
Wind_Speed
71 72 73 72 72 71 72 71 71 72 70 71 67 69 71 73 75 74 74 74 72 68 65 61 64 63 64 63 62 61 61 61
64 63 62 63 62 66 69 70 69 69 69 68 68 72 74 75 78 79 80 79 79 77 75 74 70 67 65 67 68 67 66 67
69 65 61 59 62 63 65 62 62 64 69 68 67 69 77 79 81 80 81 83 83 83 82 81 80 79 75 68 72 72 68 70
61 67 65 66 67 68 69 75 80 77 70 69 69 70 76 75 77 81 80 81 83 84 85 86 86 85 84 83 79 76 76 76
71 72 70 69 68 66 74 74 75 74 68 65 67 71 74 73 74 81 82 83 85 86 88 88 87 88 90 91 90 91 89 86
77 74 77 75 72 76 67 69 75 77 74 74 72 74 79 81 80 79 80 82 84 87 88 90 91 93 94 92 91 94 96 96
79 81 82 76 74 78 80 78 73 71 74 81 83 83 86 88 88 89 90 92 94 96 98 98 98 100 101 99 98 100 101 100
68 67 67 66 63 65 72 87 85 82 78 78 81 83 84 87 91 95 98 99 100 103 103 104 105 107 108 107 107 106 106 107
67 66 67 67 67 67 68 69 71 78 83 80 77 76 82 86 90 95 96 98 101 103 106 108 110 113 113 113 114 115 114 114
72 70 70 70 70 71 71 71 73 75 77 78 79 82 86 88 91 92 94 94 96 97 98 100 102 105 106 107 110 114 115 115
77 75 74 74 76 75 75 76 77 80 83 83 84 86 87 86 82 77 75 76 78 80 82 84 85 88 90 91 95 101 107 112
72 75 75 74 75 75 76 76 76 77 80 78 73 68 66 67 68 70 72 74 74 75 76 78 79 81 82 82 84 88 94 100
48 54 58 63 65 65 63 58 54 52 53 55 58 60 63 65 66 66 65 65 65 65 66 67 68 70 72 74 77 82 87 91
37 38 39 39 40 41 42 44 46 49 52 54 56 57 55 53 52 52 53 53 53 55 56 56 57 59 60 63 67 71 77 84
34 34 36 37 38 40 42 44 46 48 48 48 46 46 45 45 46 47 48 49 51 50 48 49 50 52 54 55 58 61 67 73
37 37 36 36 38 40 42 44 43 42 41 42 42 42 42 43 46 49 49 49 49 48 48 49 51 54 55 56 59 60 62 65
36 35 35 37 38 38 38 38 39 37 36 36 37 39 39 41 42 43 44 44 45 47 48 50 52 54 56 57 59 62 65 67
34 35 36 35 35 34 34 32 30 28 26 27 28 29 32 34 36 38 41 44 46 48 50 52 53 56 58 60 62 64 66 68
36 35 34 34 32 29 27 26 26 26 27 28 28 28 30 33 36 40 42 44 48 51 54 57 58 60 62 65 67 66 66 66
Wind_Direction
255 256 257 256 255 254 254 255 256 257 255 255 252 253 252 254 255 255 254 252 250 248 249 251 252 252 254 254 255 258 260 261
259 256 251 255 260 261 256 250 253 256 254 255 253 253 254 254 254 255 255 254 254 253 250 249 249 249 251 252 254 256 259 260
247 252 257 258 256 254 251 256 257 261 259 256 254 253 252 253 255 254 255 255 256 256 255 253 252 250 250 249 249 251 255 257
255 245 245 249 253 254 253 248 252 257 260 263 258 255 253 254 255 255 255 256 258 258 258 257 255 254 253 251 251 250 251 254
249 247 249 244 249 255 254 251 252 257 259 263 262 261 256 255 255 256 256 256 256 258 257 258 260 260 257 256 253 252 250 251
242 247 247 253 247 250 251 254 257 259 259 262 261 262 263 265 266 265 263 262 265 264 264 261 260 260 260 259 260 259 257 254
247 246 250 254 251 251 254 252 255 255 258 258 259 262 262 262 264 265 266 267 265 263 262 262 260 260 260 262 260 260 260 260
248 252 251 254 256 257 256 251 254 256 258 261 260 261 261 262 263 264 265 264 264 264 264 263 261 261 261 260 259 260 261 260
249 252 256 257 260 262 262 262 261 261 261 267 268 267 267 267 266 266 266 265 266 265 265 266 265 265 264 263 263 263 262 260
246 248 251 255 256 258 261 263 265 267 268 268 269 269 268 268 269 271 271 271 270 270 269 269 268 267 266 265 264 264 264 263
247 249 251 252 254 256 259 261 264 267 268 270 271 273 274 275 276 275 274 274 273 272 272 271 270 269 267 266 264 263 263 262
248 249 252 255 257 259 261 263 265 266 267 270 272 274 275 275 276 277 277 276 276 276 275 274 273 273 272 270 266 263 261 260
248 251 254 257 261 265 266 266 268 269 270 271 272 273 274 276 277 278 279 279 279 279 279 280 280 278 277 275 270 267 265 262
252 257 260 263 264 265 267 269 269 271 272 274 276 277 279 280 281 281 281 281 281 281 281 282 281 280 279 278 275 272 269 267
262 265 266 266 268 271 273 276 277 279 279 279 281 282 283 281 280 279 281 282 283 283 284 287 288 288 288 287 283 281 277 273
266 267 270 274 278 282 283 283 283 282 283 284 284 283 282 279 278 279 283 286 289 292 294 294 295 294 294 293 291 289 287 284
269 271 276 280 282 283 283 284 288 294 294 292 287 283 280 278 283 287 290 293 297 299 299 300 299 297 295 294 292 290 288 287
271 276 278 278 279 281 281 288 295 298 298 295 292 289 288 289 290 294 297 298 300 304 305 307 306 305 303 301 297 294 291 288
272 275 273 275 278 276 279 285 289 294 297 297 298 297 296 297 299 299 301 307 311 312 312 312 311 311 309 308 307 305 302 298